Home > Weather > Dayton > Past weeks

Flag for U.S.A. Weather for the Past 2 Weeks in Dayton, Ohio, U.S.A.

Now
17 °F

Mostly cloudy.


Feels Like: 3 °F
Forecast: 14 / 21 °F
Wind: 13 mph from West

Location: Dayton / Wright-Patterson Air Force Base

Current Time: Feb 10, 2016 at 2:09:00 AM

Latest Report: Feb 10, 2016 at 12:58 AM


Visibility: 10 mi

Pressure: 29.91 "Hg

Humidity: 72%

Dew point: 9 °F

Location of DaytonLocation

Historic Weather in Dayton — Graph

°F

Dayton Temperature Yesterday

Maximum temperature yesterday: 26 °F (at 12:58 PM)
Minimum temperature yesterday: 18 °F (at 11:58 PM)
Average temperature yesterday: 23 °F

High & Low Weather Summary for the Past Weeks

 TemperatureHumidityPressure
High62 °F (Jan 30, 3:58 PM)100% (Feb 2, 9:58 PM)30.46 "Hg (Feb 2, 9:58 PM)
Low17 °F (Feb 10, 12:58 AM)27% (Feb 7, 2:58 PM)29.55 "Hg (Feb 3, 3:58 AM)
Average37 °F70%29.98 "Hg
* Reported Jan 26 12:58 AM — Feb 10 12:58 AM, Dayton, Weather by CustomWeather, © 2016

Note: Actual official high and low records may vary slightly from our data, if they occured in-between our weather recording intervals... More about our weather records

Advertising

Dayton Weather History for the Previous 24 Hours

 ConditionsComfort  
Time TempWeatherWind HumidityBarometerVisibility
12:58 AM
Wed, Feb 10
17 °FMostly cloudy.13 mph72%29.91 "Hg10 mi
11:58 PM
Tue, Feb 9
18 °FLight snow. Mostly cloudy.13 mph79%29.91 "Hg10 mi
10:58 PM20 °FLight snow. Mostly cloudy.16 mph74%29.91 "Hg10 mi
9:58 PM20 °FLight snow. Mostly cloudy.17 mph73%29.90 "Hg10 mi
8:58 PM22 °FLight snow. Mostly cloudy.12 mph77%29.89 "Hg10 mi
7:58 PM23 °FLight snow. Mostly cloudy.12 mph80%29.88 "Hg10 mi
6:58 PM24 °FLight snow. Mostly cloudy.16 mph75%29.86 "Hg10 mi
5:58 PM25 °FLight snow. Ice fog.12 mph79%29.83 "Hg6 mi
4:58 PM25 °FOvercast.16 mph74%29.81 "Hg10 mi
3:58 PM24 °FLight snow. More clouds than sun.14 mph78%29.78 "Hg9 mi
2:58 PM24 °FLight snow. Ice fog.12 mph87%29.76 "Hg1 mi
2:48 PM25 °FLight snow. Ice fog.15 mph86%29.72 "Hg1 mi
1:58 PM24 °FLight snow. Ice fog.14 mph85%29.75 "Hg1 mi
12:58 PM26 °FLight snow. Mostly cloudy.14 mph73%29.75 "Hg9 mi
11:58 AM25 °FOvercast.14 mph74%29.75 "Hg9 mi
10:58 AM25 °FOvercast.13 mph76%29.75 "Hg10 mi
9:58 AM24 °FIce fog.14 mph83%29.75 "Hg6 mi
8:58 AM23 °FLight snow. Ice fog.12 mph88%29.73 "Hg5 mi
7:58 AM22 °FLight snow. Ice fog.9 mph90%29.72 "Hg1 mi
6:58 AM22 °FLight snow. Ice fog.8 mph90%29.71 "Hg3 mi
5:58 AM23 °FLight snow. Ice fog.10 mph86%29.70 "Hg3 mi
4:58 AM23 °FLight snow. Ice fog.12 mph89%29.68 "Hg4 mi
3:58 AM24 °FLight snow. Mostly cloudy.8 mph88%29.68 "Hg10 mi
2:58 AM24 °FLight snow. Mostly cloudy.9 mph88%29.69 "Hg10 mi
Weather by CustomWeather, © 2016

See weather overviewHow to use our weather pages